This demonstration page uses our WeatherBlox Daily Observations layout. Learn more.

Left ArrowRight Arrow

39.12711, -84.51439

Hourly Observations for May 13, 2018

Temp ( °F °C ) Dew Point ( °F °C ) Humidity (%) Winds ( mph kmh ) Pressure ( in mb ) Visibility ( mi km ) Precip ( " mm )
12:53 am 00:53 Clear with Mist and Fog 67 19.4 67 19.4 100 100 Calm 30.01 1016 6 10 0.00 0.00
1:53 am 01:53 Clear with Mist and Fog 66 18.9 66 18.9 100 100 Calm 30.01 1016 5 8 0.00 0.00
2:26 am 02:26 Clear with Mist and Fog 63 17.2 63 17.2 100 100 NE 6 9 30.00 1016 3 4 0.00 0.00
2:35 am 02:35 Clear with Mist and Fog 65 18.3 65 18.3 100 100 E 3 6 30.00 1016 5 8 0.00 0.00
2:53 am 02:53 Clear with Mist and Fog 64 17.8 64 17.8 100 100 Calm 30.00 1016 4 6 0.00 0.00
3:38 am 03:38 Clear with Mist and Fog 63 17.2 63 17.2 100 100 Calm 29.97 1015 1 2 0.00 0.00
3:46 am 03:46 Clear with Fog 63 17.2 63 17.2 100 100 Calm 29.97 1015 0 0 0.00 0.00
3:53 am 03:53 Clear with Fog 63 17.2 63 17.2 100 100 Calm 30.00 1016 1 1 0.00 0.00
4:14 am 04:14 Mostly Cloudy with Fog 62 16.7 62 16.7 100 100 Calm 29.97 1015 0 0 0.00 0.00
4:53 am 04:53 Mostly Cloudy with Fog 61 16.1 61 16.1 100 100 Calm 30.00 1016 0 0 0.00 0.00
5:31 am 05:31 Mostly Cloudy with Mist and Fog 62 16.7 62 16.7 100 100 Calm 29.97 1015 1 2 0.00 0.00
5:35 am 05:35 Mostly Clear with Mist and Fog 62 16.7 62 16.7 100 100 Calm 29.97 1015 2 3 0.00 0.00
5:44 am 05:44 Clear with Mist and Fog 63 17.2 63 17.2 100 100 Calm 29.97 1015 3 5 0.00 0.00
5:53 am 05:53 Mostly Clear with Mist and Fog 63 17.2 63 17.2 100 100 Calm 30.00 1016 4 6 0.00 0.00
6:33 am 06:33 Sunny with Mist and Fog 62 16.7 62 16.7 100 100 Calm 30.00 1016 2 3 0.00 0.00
6:51 am 06:51 Sunny with Fog 63 17 63 17 100 100 Calm 30.00 1016 7 11 0.00 0.00
6:53 am 06:53 Sunny with Fog 62 16.7 62 16.7 100 100 Calm 30.02 1017 7 11 0.00 0.00
7:00 am 07:00 Sunny with Fog 62 16.7 62 16.7 100 100 Calm 30.00 1016 7 11 0.00 0.00
7:53 am 07:53 Sunny 67 19.4 66 18.9 97 97 SW 3 6 30.03 1017 10 16 0.00 0.00
8:53 am 08:53 Mostly Sunny 75 23.9 65 18.3 71 71 SSW 10 17 30.02 1017 10 16 0.00 0.00
9:53 am 09:53 Sunny 79 26.1 66 18.9 65 65 SW 9 15 30.02 1017 10 16 0.00 0.00
10:53 am 10:53 Sunny 82 27.8 66 18.9 58 58 W 12 19 30.01 1016 10 16 0.00 0.00
11:53 am 11:53 Partly Cloudy 85 29.4 68 20 57 57 WSW 16 26 30.00 1016 10 16 0.00 0.00
12:53 pm 12:53 Mostly Sunny 85 29.4 66 18.9 53 53 WSW 16 26 29.98 1015 10 16 0.00 0.00
1:53 pm 13:53 Partly Cloudy 87 30.6 66 18.9 50 50 WSW 13 20 29.98 1015 10 16 0.00 0.00
2:53 pm 14:53 Partly Cloudy 87 30.6 68 20 53 53 W 10 17 29.96 1015 10 16 0.00 0.00
3:53 pm 15:53 Mostly Cloudy 85 29.4 67 19.4 55 55 SW 13 20 29.95 1014 10 16 0.00 0.00
4:53 pm 16:53 Partly Cloudy 86 30 67 19.4 53 53 WSW 13 20 29.94 1014 10 16 0.00 0.00
5:53 pm 17:53 Partly Cloudy 85 29.4 68 20 57 57 SW 15 24 29.95 1014 10 16 0.00 0.00
6:53 pm 18:53 Partly Cloudy 86 30 69 20.6 57 57 WSW 10 17 29.94 1014 10 16 0.00 0.00
7:53 pm 19:53 Mostly Sunny 84 28.9 67 19.4 57 57 WSW 10 17 29.93 1014 10 16 0.00 0.00
8:53 pm 20:53 Clear 78 25.6 67 19.4 69 69 SW 6 9 29.96 1014 10 16 0.00 0.00
9:53 pm 21:53 Clear 73 22.8 68 20 84 84 SW 7 11 29.97 1015 10 16 0.00 0.00
10:53 pm 22:53 Clear 74 23.3 68 20 82 82 Calm 29.97 1015 10 16 0.00 0.00
11:53 pm 23:53 Clear 72 22.2 68 20 87 87 Calm 29.96 1015 10 16 0.00 0.00

Powered by AerisWeather